AFR4147 DAOO-LFPG

Flight info

Callsign AFR4147
Flight time 1h 2m
Altitude 38000
Route SID54 HAMRA DCT IZA DCT OKITI DCT GODOX DCT EPAMA DCT MARTA DCT EBROX DCT LATRO DCT OLOXO DCT OKABI DCT TOU DCT POI/N0497F300 DCT PEPAX UT182 KEPER
Aircraft B77W/H-SDE1E2E3FGHIJ2J3J4J5M1RWXY/LB1D1

Departure

Time 2026-05-05 20:28
Airport Oran Es-Sénia (Ahmed Ben Bella) International Airport (DAOO)

Arrival

Time 2026-05-05 21:31
Airport Charles de Gaulle International Airport (LFPG)
Time Latitude Longitude Altitude Speed Heading
2026-05-05 20:07 35.61930 -0.61131 315 ft 0 kts 141°
2026-05-05 20:21 35.61938 -0.61139 314 ft 4 kts 141°
2026-05-05 20:21 35.61959 -0.61159 315 ft 4 kts 141°
2026-05-05 20:22 35.61977 -0.61177 313 ft 4 kts 131°
2026-05-05 20:22 35.61988 -0.61198 315 ft 4 kts 95°
2026-05-05 20:22 35.61986 -0.61219 312 ft 4 kts 54°
2026-05-05 20:22 35.61968 -0.61243 315 ft 4 kts 48°
2026-05-05 20:23 35.61963 -0.61251 314 ft 0 kts 51°
2026-05-05 20:25 35.62003 -0.61191 315 ft 13 kts 51°
2026-05-05 20:25 35.62045 -0.61092 317 ft 13 kts 66°
2026-05-05 20:25 35.62093 -0.61000 317 ft 13 kts 25°
2026-05-05 20:26 35.62181 -0.60982 317 ft 13 kts 43°
2026-05-05 20:26 35.62218 -0.60875 316 ft 14 kts 68°
2026-05-05 20:26 35.62269 -0.60780 317 ft 14 kts 23°
2026-05-05 20:26 35.62343 -0.60842 318 ft 14 kts 307°
2026-05-05 20:27 35.62395 -0.60942 317 ft 14 kts 301°
2026-05-05 20:27 35.62439 -0.61033 317 ft 7 kts 300°
2026-05-05 20:27 35.62441 -0.61094 317 ft 7 kts 249°
2026-05-05 20:27 35.62408 -0.61187 318 ft 26 kts 247°
2026-05-05 20:28 35.62230 -0.61703 316 ft 108 kts 248°
2026-05-05 20:28 35.61841 -0.62841 363 ft 173 kts 246°
2026-05-05 20:28 35.61368 -0.64233 1128 ft 173 kts 247°
2026-05-05 20:28 35.60906 -0.65578 2119 ft 173 kts 247°
2026-05-05 20:29 35.60685 -0.67079 2521 ft 194 kts 282°
2026-05-05 20:29 35.61488 -0.68500 2910 ft 224 kts 324°
2026-05-05 20:29 35.63029 -0.69245 3276 ft 249 kts 336°
2026-05-05 20:29 35.64697 -0.69968 3840 ft 262 kts 349°
2026-05-05 20:30 35.66538 -0.69633 4683 ft 279 kts 24°
2026-05-05 20:30 35.68016 -0.68090 5636 ft 283 kts 48°
2026-05-05 20:30 35.69276 -0.66176 6414 ft 291 kts 48°
2026-05-05 20:30 35.70582 -0.64252 7337 ft 295 kts 46°
2026-05-05 20:31 35.71950 -0.62344 8276 ft 299 kts 45°
2026-05-05 20:31 35.73351 -0.60482 9184 ft 302 kts 44°
2026-05-05 20:31 35.74814 -0.58606 10072 ft 306 kts 43°
2026-05-05 20:31 35.76341 -0.56704 10649 ft 323 kts 43°
2026-05-05 20:32 35.78017 -0.54668 10883 ft 355 kts 42°
2026-05-05 20:32 35.79853 -0.52456 11105 ft 383 kts 42°
2026-05-05 20:32 35.81803 -0.50120 11808 ft 397 kts 42°
2026-05-05 20:32 35.83808 -0.47731 12761 ft 406 kts 42°
2026-05-05 20:33 35.85858 -0.45292 13847 ft 412 kts 42°
2026-05-05 20:33 35.87935 -0.42824 14826 ft 418 kts 42°
2026-05-05 20:33 35.90045 -0.40317 15765 ft 424 kts 42°
2026-05-05 20:33 35.92185 -0.37774 16734 ft 430 kts 43°
2026-05-05 20:34 35.94598 -0.34906 17789 ft 437 kts 43°
2026-05-05 20:34 36.03169 -0.24698 20866 ft 460 kts 42°
2026-05-05 20:34 36.12661 -0.13353 23727 ft 487 kts 42°
2026-05-05 20:34 36.22561 -0.01472 26227 ft 504 kts 42°
2026-05-05 20:35 36.34549 0.06299 28331 ft 497 kts 354°
2026-05-05 20:35 36.48228 0.03923 30271 ft 503 kts 347°
2026-05-05 20:35 36.62068 0.01670 32433 ft 496 kts 347°
2026-05-05 20:35 36.75588 -0.00523 34503 ft 488 kts 347°
2026-05-05 20:36 36.89200 -0.00650 35904 ft 508 kts 13°
2026-05-05 20:36 36.95842 0.03476 36756 ft 513 kts 26°
2026-05-05 20:36 36.98880 0.05719 37088 ft 514 kts 26°
2026-05-05 20:36 37.01992 0.08029 37404 ft 514 kts 26°
2026-05-05 20:37 37.05076 0.10299 37702 ft 514 kts 26°
2026-05-05 20:37 37.08175 0.12552 37907 ft 517 kts 26°
2026-05-05 20:37 37.18875 0.20203 37997 ft 526 kts 25°
2026-05-05 20:38 37.44174 0.38351 37901 ft 513 kts 25°
2026-05-05 20:38 37.68559 0.55978 37970 ft 505 kts 25°
2026-05-05 20:39 37.93373 0.74057 37982 ft 522 kts 25°
2026-05-05 20:39 38.18302 0.92376 37898 ft 510 kts 25°
2026-05-05 20:40 38.42740 1.10461 37981 ft 512 kts 25°
2026-05-05 20:40 38.67770 1.29143 37969 ft 525 kts 25°
2026-05-05 20:41 38.93121 1.46107 37907 ft 492 kts
2026-05-05 20:41 39.06382 1.45088 37999 ft 479 kts 346°
2026-05-05 20:41 39.19812 1.43340 38004 ft 491 kts 347°
2026-05-05 20:42 39.47333 1.39758 37951 ft 497 kts 347°
2026-05-05 20:42 39.74362 1.36151 37952 ft 480 kts 347°
2026-05-05 20:43 40.01101 1.32598 38013 ft 490 kts 347°
2026-05-05 20:43 40.28485 1.28944 37948 ft 494 kts 347°
2026-05-05 20:44 40.55490 1.25297 37937 ft 484 kts 347°
2026-05-05 20:44 40.68988 1.23775 37954 ft 498 kts 355°
2026-05-05 20:44 40.82924 1.27294 37976 ft 520 kts 10°
2026-05-05 20:45 41.24608 1.42540 37922 ft 511 kts 10°
2026-05-05 20:45 41.44716 1.49861 37984 ft 514 kts 10°
2026-05-05 20:46 41.52069 1.52557 37881 ft 507 kts 10°
2026-05-05 20:46 41.64622 1.57158 38040 ft 524 kts 11°
2026-05-05 20:47 41.85860 1.60638 37934 ft 506 kts 347°
2026-05-05 20:47 42.13017 1.56158 37942 ft 490 kts 348°
2026-05-05 20:48 42.40354 1.51801 37993 ft 504 kts 348°
2026-05-05 20:48 42.68409 1.47307 37972 ft 504 kts 348°
2026-05-05 20:49 42.82423 1.45051 38000 ft 494 kts 348°
2026-05-05 20:49 43.04202 1.41513 38028 ft 496 kts 349°
2026-05-05 20:50 43.32031 1.36962 38021 ft 509 kts 349°
2026-05-05 20:50 43.59858 1.32371 37926 ft 495 kts 349°
2026-05-05 20:51 43.86592 1.24878 38017 ft 493 kts 342°
2026-05-05 20:51 44.13732 1.15764 37980 ft 505 kts 343°
2026-05-05 20:52 44.40644 1.06667 37913 ft 489 kts 343°
2026-05-05 20:52 44.67164 0.97610 37995 ft 497 kts 343°
2026-05-05 20:53 44.94296 0.88263 37932 ft 501 kts 344°
2026-05-05 20:53 45.20913 0.79002 37916 ft 486 kts 344°
2026-05-05 20:54 45.47488 0.69662 37985 ft 501 kts 344°
2026-05-05 20:54 45.74714 0.60005 37908 ft 500 kts 345°
2026-05-05 20:55 46.01269 0.50489 37901 ft 487 kts 345°
2026-05-05 20:55 46.16905 0.44840 37926 ft 496 kts 345°
2026-05-05 20:56 46.23570 0.42422 37909 ft 498 kts 345°
2026-05-05 20:56 46.30299 0.39977 37897 ft 499 kts 345°
2026-05-05 20:57 46.37026 0.37524 37891 ft 498 kts 345°
2026-05-05 20:57 46.43737 0.35072 37884 ft 497 kts 345°
2026-05-05 20:58 46.50431 0.32619 37888 ft 495 kts 345°
2026-05-05 20:58 46.57200 0.30842 37881 ft 496 kts 356°
2026-05-05 20:59 46.64069 0.31422 37880 ft 496 kts 10°
2026-05-05 20:59 46.70807 0.33545 37888 ft 496 kts 12°
2026-05-05 21:00 46.77419 0.36402 37889 ft 496 kts 19°
2026-05-05 21:00 46.83882 0.39938 37897 ft 497 kts 20°
2026-05-05 21:01 46.90357 0.43530 37884 ft 498 kts 20°
2026-05-05 21:01 46.96853 0.47064 37882 ft 499 kts 20°
2026-05-05 21:02 47.03369 0.50571 37886 ft 499 kts 20°
2026-05-05 21:02 47.09894 0.54083 37890 ft 499 kts 20°
2026-05-05 21:03 47.16419 0.57608 37885 ft 500 kts 20°
2026-05-05 21:03 47.22944 0.61146 37880 ft 500 kts 20°
2026-05-05 21:04 47.29470 0.64694 37509 ft 505 kts 20°
2026-05-05 21:04 47.32744 0.66477 36827 ft 507 kts 20°
2026-05-05 21:04 47.36085 0.68299 35983 ft 505 kts 20°
2026-05-05 21:05 47.39329 0.70071 35188 ft 504 kts 20°
2026-05-05 21:05 47.42607 0.71864 34406 ft 501 kts 21°
2026-05-05 21:05 47.45874 0.73653 33579 ft 498 kts 21°
2026-05-05 21:05 47.49097 0.75420 32891 ft 491 kts 21°
2026-05-05 21:06 47.52276 0.77165 32204 ft 484 kts 21°
2026-05-05 21:06 47.55413 0.78889 31440 ft 479 kts 22°
2026-05-05 21:06 47.58527 0.80603 30590 ft 476 kts 22°
2026-05-05 21:06 47.61615 0.82306 29873 ft 470 kts 22°
2026-05-05 21:07 47.64612 0.83958 28820 ft 452 kts 22°
2026-05-05 21:07 47.67528 0.85569 27524 ft 443 kts 22°
2026-05-05 21:07 47.70351 0.87130 26974 ft 428 kts 21°
2026-05-05 21:07 47.73130 0.88671 26330 ft 424 kts 21°
2026-05-05 21:08 47.75881 0.90199 25729 ft 421 kts 21°
2026-05-05 21:08 47.77695 0.91206 25329 ft 418 kts 21°
2026-05-05 21:08 47.80410 0.92716 24737 ft 415 kts 21°
2026-05-05 21:08 47.83107 0.94216 24169 ft 413 kts 21°
2026-05-05 21:09 47.85789 0.95710 23580 ft 412 kts 21°
2026-05-05 21:09 47.88445 0.97190 22904 ft 410 kts 20°
2026-05-05 21:09 47.91108 0.98676 22284 ft 407 kts 20°
2026-05-05 21:09 47.93748 1.00151 21693 ft 403 kts 20°
2026-05-05 21:10 47.96366 1.01616 21117 ft 399 kts 20°
2026-05-05 21:10 47.98956 1.03066 20558 ft 397 kts 20°
2026-05-05 21:10 48.01534 1.04511 19993 ft 394 kts 20°
2026-05-05 21:10 48.04095 1.05948 19435 ft 393 kts 20°
2026-05-05 21:11 48.06661 1.07389 18873 ft 396 kts 20°
2026-05-05 21:11 48.09268 1.08855 18324 ft 405 kts 20°
2026-05-05 21:11 48.11927 1.10350 17679 ft 410 kts 20°
2026-05-05 21:11 48.14600 1.11856 17028 ft 409 kts 20°
2026-05-05 21:12 48.17252 1.13353 16422 ft 405 kts 20°
2026-05-05 21:12 48.19873 1.14833 15836 ft 401 kts 20°
2026-05-05 21:12 48.22475 1.16305 15260 ft 398 kts 20°
2026-05-05 21:12 48.25052 1.17764 14696 ft 395 kts 20°
2026-05-05 21:13 48.27615 1.19214 14125 ft 393 kts 20°
2026-05-05 21:13 48.30170 1.20663 13542 ft 392 kts 20°
2026-05-05 21:13 48.32717 1.22109 12894 ft 391 kts 20°
2026-05-05 21:13 48.35246 1.23558 12331 ft 385 kts 22°
2026-05-05 21:14 48.37613 1.25396 11897 ft 382 kts 33°
2026-05-05 21:14 48.39734 1.27738 11706 ft 375 kts 39°
2026-05-05 21:14 48.41634 1.30386 11488 ft 370 kts 45°
2026-05-05 21:14 48.43451 1.33103 11211 ft 367 kts 45°
2026-05-05 21:15 48.45256 1.35810 10925 ft 365 kts 45°
2026-05-05 21:15 48.47048 1.38500 10651 ft 363 kts 45°
2026-05-05 21:15 48.48829 1.41172 10399 ft 360 kts 45°
2026-05-05 21:15 48.50600 1.43824 10151 ft 357 kts 45°
2026-05-05 21:16 48.52357 1.46455 9920 ft 355 kts 45°
2026-05-05 21:16 48.54102 1.49069 9709 ft 351 kts 45°
2026-05-05 21:16 48.55817 1.51639 9629 ft 344 kts 45°
2026-05-05 21:16 48.57506 1.54170 9528 ft 338 kts 45°
2026-05-05 21:17 48.59159 1.56648 9470 ft 332 kts 45°
2026-05-05 21:17 48.60779 1.59081 9409 ft 326 kts 45°
2026-05-05 21:17 48.62375 1.61479 9328 ft 321 kts 45°
2026-05-05 21:17 48.63947 1.63844 9256 ft 317 kts 45°
2026-05-05 21:18 48.65478 1.66147 9204 ft 312 kts 45°
2026-05-05 21:18 48.67007 1.68453 9113 ft 309 kts 45°
2026-05-05 21:18 48.68525 1.70742 8995 ft 306 kts 44°
2026-05-05 21:18 48.70026 1.73007 8948 ft 303 kts 45°
2026-05-05 21:19 48.71512 1.75252 8849 ft 301 kts 45°
2026-05-05 21:19 48.72986 1.77480 8759 ft 299 kts 44°
2026-05-05 21:19 48.74455 1.79705 8645 ft 298 kts 45°
2026-05-05 21:19 48.75919 1.81922 8540 ft 297 kts 44°
2026-05-05 21:20 48.77370 1.84121 8456 ft 292 kts 44°
2026-05-05 21:20 48.78788 1.86272 8297 ft 285 kts 44°
2026-05-05 21:20 48.80174 1.88377 8137 ft 278 kts 44°
2026-05-05 21:20 48.81520 1.90421 7945 ft 271 kts 44°
2026-05-05 21:21 48.82826 1.92410 7819 ft 262 kts 44°
2026-05-05 21:21 48.84105 1.94358 7528 ft 261 kts 44°
2026-05-05 21:21 48.85368 1.96281 7268 ft 258 kts 44°
2026-05-05 21:21 48.86375 1.97815 7009 ft 258 kts 44°
2026-05-05 21:22 48.87636 1.99739 6739 ft 255 kts 44°
2026-05-05 21:22 48.88877 2.01635 6472 ft 254 kts 44°
2026-05-05 21:22 48.90121 2.03535 6179 ft 253 kts 44°
2026-05-05 21:22 48.91352 2.05416 6001 ft 249 kts 44°
2026-05-05 21:23 48.92549 2.07248 5927 ft 239 kts 44°
2026-05-05 21:23 48.93705 2.09017 5845 ft 231 kts 44°
2026-05-05 21:23 48.94817 2.10722 5761 ft 223 kts 44°
2026-05-05 21:23 48.95889 2.12366 5649 ft 214 kts 45°
2026-05-05 21:24 48.96629 2.14216 5532 ft 201 kts 73°
2026-05-05 21:24 48.96910 2.16224 5433 ft 191 kts 75°
2026-05-05 21:24 48.97145 2.18184 5232 ft 185 kts 77°
2026-05-05 21:24 48.97303 2.20092 5073 ft 177 kts 79°
2026-05-05 21:25 48.97425 2.21938 4872 ft 173 kts 81°
2026-05-05 21:25 48.97538 2.23764 4647 ft 174 kts 82°
2026-05-05 21:25 48.97632 2.25585 4413 ft 174 kts 81°
2026-05-05 21:25 48.97730 2.27436 4172 ft 172 kts 81°
2026-05-05 21:26 48.97826 2.29238 3928 ft 170 kts 79°
2026-05-05 21:26 48.97921 2.31001 3687 ft 169 kts 80°
2026-05-05 21:26 48.98019 2.32799 3461 ft 170 kts 80°
2026-05-05 21:26 48.98113 2.34561 3258 ft 166 kts 80°
2026-05-05 21:27 48.98206 2.36317 3040 ft 168 kts 79°
2026-05-05 21:27 48.98300 2.38084 2817 ft 166 kts 78°
2026-05-05 21:27 48.98394 2.39833 2577 ft 167 kts 78°
2026-05-05 21:27 48.98491 2.41608 2348 ft 169 kts 79°
2026-05-05 21:28 48.98585 2.43383 2124 ft 165 kts 78°
2026-05-05 21:28 48.98671 2.45053 1892 ft 151 kts 77°
2026-05-05 21:28 48.98752 2.46565 1707 ft 137 kts 76°
2026-05-05 21:28 48.98832 2.48003 1537 ft 137 kts 77°
2026-05-05 21:29 48.98911 2.49465 1340 ft 140 kts 79°
2026-05-05 21:29 48.98994 2.50950 1121 ft 141 kts 81°
2026-05-05 21:29 48.99073 2.52435 934 ft 140 kts 80°
2026-05-05 21:29 48.99152 2.53923 721 ft 141 kts 81°
2026-05-05 21:30 48.99230 2.55406 570 ft 142 kts 80°
2026-05-05 21:30 48.99310 2.56903 371 ft 140 kts 81°
2026-05-05 21:30 48.99383 2.58251 362 ft 111 kts 85°
2026-05-05 21:30 48.99435 2.59139 360 ft 57 kts 84°
2026-05-05 21:31 48.99449 2.59493 357 ft 21 kts 86°
2026-05-05 21:31 48.99458 2.59695 357 ft 17 kts 85°
2026-05-05 21:31 48.99479 2.59853 365 ft 13 kts 66°
2026-05-05 21:31 48.99531 2.59942 366 ft 11 kts 31°
2026-05-05 21:32 48.99601 2.59976 365 ft 11 kts
2026-05-05 21:32 48.99636 2.59927 363 ft 7 kts 289°
2026-05-05 21:32 48.99640 2.59852 364 ft 7 kts 269°
2026-05-05 21:32 48.99639 2.59778 364 ft 7 kts 269°
2026-05-05 21:33 48.99642 2.59730 365 ft 4 kts 287°
2026-05-05 21:33 48.99661 2.59695 366 ft 4 kts 324°
2026-05-05 21:33 48.99691 2.59688 365 ft 4 kts 355°
2026-05-05 21:33 48.99733 2.59682 364 ft 12 kts 355°
2026-05-05 21:34 48.99817 2.59671 362 ft 12 kts 355°
2026-05-05 21:34 48.99900 2.59661 366 ft 12 kts 355°
2026-05-05 21:34 48.99984 2.59650 362 ft 12 kts 354°
2026-05-05 21:34 49.00064 2.59617 363 ft 12 kts 317°
2026-05-05 21:35 49.00076 2.59495 361 ft 12 kts 264°
2026-05-05 21:35 49.00069 2.59367 362 ft 12 kts 265°
2026-05-05 21:35 49.00061 2.59240 365 ft 12 kts 265°
2026-05-05 21:35 49.00055 2.59114 364 ft 12 kts 265°
2026-05-05 21:36 49.00048 2.58985 365 ft 12 kts 265°
2026-05-05 21:36 49.00041 2.58857 359 ft 12 kts 265°
2026-05-05 21:36 49.00085 2.58765 363 ft 12 kts 347°
2026-05-05 21:36 49.00169 2.58760 361 ft 11 kts 358°
2026-05-05 21:37 49.00214 2.58725 364 ft 7 kts 294°
2026-05-05 21:37 49.00211 2.58650 359 ft 5 kts 263°
2026-05-05 21:37 49.00210 2.58642 366 ft 1 kts 263°
2026-05-05 21:37 49.00210 2.58636 366 ft 0 kts 263°